Tracking 19199 objects as of 25-Jun-2018
HD Live streaming from Space Station
objects crossing your sky now

METEOSAT 3

Track METEOSAT 3 now!
METEOSAT 3 is classified as:


NORAD ID: 19215
Int'l Code: 1988-051A
Perigee: 36,723.6 km
Apogee: 36,780.1 km
Inclination: 16.1 °
Period: 1,485.3 minutes
Semi major axis: 43122 km
RCS: 4.1367 m2 (large)
Launch date: June 15, 1988
Source: European Space Agency (ESA)
Launch site: FRENCH GUIANA (FRGUI)
aabbcc
Your satellite tracking list
Your tracking list is empty




NASA's NSSDC Master Catalog

Two Line Element Set (TLE):
1 19215U 88051A   18175.76011088 -.00000183 +00000-0 +00000-0 0  9996
2 19215 016.0896 005.0936 0006543 310.9073 043.5175 00.96948609095149
Source of the keplerian elements: AFSPC